TIME,DELAY(SENSOR),PRES,OXYGEN,RAWTEMP,T(OPTODE),TCPHASE,FLUOR,BETA(BETA700),BETA(BETA412),BETA(BETA440),CDOM,C(CSC),ED(ED412.40),ED(ED444.00),ED(ED489.70),ED(ED554.30),LU(LU411.80),LU(LU443.40),LU(LU489.60),LU(LU554.10),COMP,TILTX,TILTY,CHECK
1381809979,5808,829.2600097656250000,51.2010993957519500,659.8212280273438000,4.6338601112365720,53.3758010864257800,51,100,86,77,79,15272,2147753929,2147428251,2148011593,2147877851,2147638820,2147051904,2148261220,2147197302,3472,4,13,38719
1381813575,5809,876.6699829101562000,56.4363784790039060,664.5264892578125000,4.4788398742675780,52.7324714660644500,52,98,83,78,78,15273,2147752475,2147426596,2148013632,2147875254,2147639625,2147054061,2148265846,2147196836,2852,4,13,56593
1381817175,5810,896.4799804687500000,56.1045608520507800,663.9033813476562000,4.4993820190429690,52.7638702392578100,53,96,86,79,77,15273,2147755849,2147425398,2148015625,2147874715,2147639241,2147056576,2148262976,2147196050,377,4,13,2455
1381820775,5809,926.1900024414062000,56.1125717163085940,666.9201049804688000,4.3998827934265140,52.8057403564453100,52,104,85,79,78,15277,2147757110,2147428086,2148009289,2147873444,2147637613,2147056987,2148269174,2147200777,104,4,13,24518
1381824375,5809,933.7500000000000000,56.8274803161621100,666.5775756835938000,4.4111838340759280,52.7108612060546900,53,101,84,78,78,15265,2147753097,2147425728,2148015716,2147876059,2147641078,2147052790,2148260891,2147196123,219,4,13,33963
1381827975,5807,933.6099853515625000,56.7378883361816400,666.8599243164062000,4.4018731117248535,52.7218093872070300,51,96,81,79,77,15263,2147755565,2147423734,2148012233,2147877202,2147641846,2147053897,2148260772,2147198034,105,4,13,24885
1381831575,5806,954.0900268554688000,57.2661209106445300,669.9083862304688000,4.3012242317199710,52.6904716491699200,53,97,86,79,79,15265,2147754093,2147427008,2148009417,2147872749,2147642660,2147050944,2148265188,2147196653,3568,4,13,35040
1381835175,5809,960.2199707031250000,56.8096809387207000,670.8239135742188000,4.2709770202636720,52.7632789611816400,53,99,81,78,78,15263,2147755456,2147427337,2148012781,2147874422,2147638546,2147048475,2148269586,2147195300,293,4,13,12084
1381838775,5809,956.0900268554688000,56.6886291503906250,671.0540161132812000,4.2633738517761230,52.7834815979003900,52,97,87,78,78,15262,2147757494,2147424036,2148012790,2147873435,2147641508,2147056274,2148263222,2147196507,3415,4,13,40508
1381842375,5810,981.8599853515625000,57.5766906738281250,674.3010253906250000,4.1560149192810060,52.7143096923828100,51,95,85,79,78,15262,2147757696,2147423268,2148014985,2147874459,2147640109,2147050157,2148263213,2147195922,127,4,13,19824
1381845975,5809,979.6699829101562000,57.4313697814941400,674.9669189453125000,4.1339840888977050,52.7429695129394500,51,97,85,78,80,15264,2147753837,2147426614,2148012928,2147874249,2147641526,2147049984,2148261778,2147197869,3298,4,13,26999
1381849575,5807,985.4099731445312000,57.2467002868652340,675.3897705078125000,4.1199870109558105,52.7728691101074200,52,96,85,79,78,15261,2147756105,2147423643,2148013394,2147873243,2147643995,2147056310,2148267821,2147196873,3043,3,13,60498
1381853175,5805,990.7500000000000000,58.2020111083984400,675.4074707031250000,4.1194019317626950,52.6483383178710940,52,98,84,78,79,15264,2147756644,2147425280,2148011282,2147870537,2147641078,2147052845,2148262052,2147200118,3140,4,13,7239
1381856775,5812,990.5499877929688000,58.1318016052246100,675.4080810546875000,4.1193790435791020,52.6575508117675800,52,96,87,79,79,15262,2147755062,2147424557,2148011958,2147872612,2147641526,2147052050,2148262939,2147194276,3153,4,13,45590
1381860375,5809,997.6599731445312000,57.0985183715820300,673.5302124023438000,4.1815128326416020,52.7648811340332000,52,97,86,79,79,15260,2147754441,2147424694,2148012498,2147872923,2147640813,2147056146,2148265298,2147200365,3432,4,13,19201
1381863975,5808,999.5599975585938000,57.2229385375976560,672.8464965820312000,4.2041211128234860,52.7389106750488300,51,95,82,77,78,15250,2147757019,2147426304,2148012251,2147874898,2147638555,2147054482,2148261357,2147197019,3403,4,13,17242
1381867575,5810,990.0800170898438000,56.9320106506347660,673.4628295898438000,4.1837391853332520,52.7882881164550800,51,97,85,77,78,15261,2147758710,2147427492,2148015744,2147874304,2147639506,2147053833,2148262189,2147195675,208,4,13,29852
1381871175,5809,996.3900146484375000,57.3311996459960940,673.4561767578125000,4.1839561462402340,52.7340698242187500,53,97,87,78,78,15259,2147753133,2147425362,2148013129,2147873481,2147643456,2147059474,2148266276,2147198902,329,4,13,17540
1381874775,5807,992.8599853515625000,57.3787803649902340,673.5244140625000000,4.1817040443420410,52.7312088012695300,52,96,86,79,78,15224,2147753307,2147422738,2148013632,2147875364,2147641005,2147051437,2148268406,2147200146,212,4,13,53262
1381878375,5809,990.3499755859375000,56.9129295349121100,674.4926147460938000,4.1496767997741700,52.7983207702636700,52,98,85,77,77,15253,2147754185,2147421750,2148013897,2147871643,2147638957,2147053440,2148264576,2147198866,13,4,13,46661
1381881975,5809,1005.0599975585938000,57.1116714477539060,674.3515014648438000,4.1543450355529785,52.7769508361816400,51,98,85,78,78,15255,2147755337,2147425069,2148012672,2147873892,2147637065,2147057453,2148263296,2147196278,2905,4,13,14162
1381885575,5810,1000.1500244140625000,56.9109497070312500,674.7642211914062000,4.1406879425048830,52.8053016662597660,53,97,85,78,78,15256,2147753792,2147424402,2148014445,2147874121,2147641088,2147054281,2148265682,2147197851,81,4,13,31377
1381889175,5810,992.4099731445312000,56.8474197387695300,675.0192260742188000,4.1322498321533200,52.8154487609863300,52,98,85,80,77,15255,2147753060,2147425737,2148014537,2147873773,2147640649,2147056941,2148267602,2147198025,1193,3,13,11565
1381892775,5810,993.0999755859375000,57.0509109497070300,675.9744873046875000,4.1006321907043460,52.8024101257324200,53,97,83,78,79,15256,2147757888,2147424630,2148014921,2147873526,2147640448,2147053750,2148266459,2147193161,536,4,13,61925
1381896375,5810,999.8699951171875000,56.6763305664062500,674.2645263671875000,4.1572232246398930,52.8305587768554700,52,96,84,78,78,15252,2147750281,2147426706,2148013202,2147873362,2147642916,2147049243,2148267913,2147195163,3320,4,13,53070
1381899975,5810,1001.0300292968750000,56.7973403930664060,674.3931884765625000,4.1529622077941895,52.8135490417480500,52,96,84,78,78,15255,2147756909,2147424658,2148012333,2147874395,2147641856,2147054939,2148267309,2147194834,3455,4,13,12198
1381903575,5809,991.9699707031250000,57.0643005371093750,675.4655761718750000,4.1174769401550290,52.7952003479003900,52,97,87,79,78,15255,2147753206,2147426724,2148007707,2147871387,2147639396,2147049572,2148263524,2147196964,3399,4,13,55686
1381907175,5806,994.6400146484375000,56.8502197265625000,675.6458129882812000,4.1115150451660160,52.8235397338867200,53,95,86,77,78,15248,2147755520,2147428918,2148012836,2147874477,2147641097,2147051227,2148265947,2147194660,3434,4,13,45364
1381910775,5812,1002.9099731445312000,56.5052604675293000,674.6207885742188000,4.1454329490661620,52.8545303344726560,53,97,87,78,77,15253,2147757604,2147421284,2148009883,2147875648,2147641014,2147055131,2148264292,2147197668,3568,4,13,25456
1381914375,5808,1005.4199829101562000,56.4116210937500000,673.2014770507812000,4.1923809051513670,52.8500595092773440,52,97,85,79,78,15254,2147759195,2147423680,2148014262,2147874203,2147640438,2147050468,2148260196,2147196672,513,4,13,50513
1381917975,5808,1002.9799804687500000,57.0102081298828100,672.4957885742188000,4.2157168388366700,52.7612190246582000,53,96,84,78,78,15254,2147757174,2147424384,2148012333,2147873883,2147639670,2147054765,2148268205,2147195958,3336,4,13,41173
1381921575,5808,1007.1599731445312000,57.4190902709960940,672.2114868164062000,4.2251148223876950,52.7047996520996100,51,100,83,78,78,15252,2147757284,2147424320,2148012973,2147875163,2147640256,2147054208,2148262528,2147199506,919,4,13,62229
1381925175,5810,1005.0999755859375000,56.4488792419433600,672.4072265625000000,4.2186470031738280,52.8346099853515600,53,98,84,77,79,15252,2147753124,2147423771,2148014537,2147876096,2147639515,2147052544,2148265563,2147198939,3594,4,13,30324
1381928775,5808,999.7000122070312000,56.6368217468261700,673.4387817382812000,4.1845321655273440,52.8257598876953100,52,97,85,79,78,15253,2147757138,2147424530,2148014445,2147875776,2147641417,2147056877,2148266889,2147197522,3081,4,13,16905
1381932375,5809,993.9000244140625000,57.0057106018066400,675.9367065429688000,4.1018848419189450,52.8058090209960940,52,96,83,78,79,15250,2147756553,2147423332,2148014564,2147874185,2147640832,2147056118,2148264832,2147195766,3554,3,13,49281
1381935975,5813,995.5599975585938000,57.0230102539062500,676.3148193359375000,4.0893712043762210,52.8087005615234400,51,97,86,78,78,15250,2147754843,2147424621,2148011282,2147875547,2147641225,2147054144,2148265197,2147195675,272,4,13,6950
1381939575,5811,996.9899902343750000,56.2624511718750000,676.6372070312500000,4.0786948204040530,52.9127006530761700,52,97,83,79,79,15249,2147755117,2147421019,2148013668,2147875190,2147641462,2147048402,2148267602,2147195328,3500,4,13,61053
1381943175,5810,999.7500000000000000,56.8952217102050800,676.0238037109375000,4.0990028381347660,52.8222503662109400,52,96,83,78,79,15249,2147757723,2147423570,2148011300,2147875044,2147641746,2147046866,2148267611,2147200228,13,4,13,55691
1381946775,5807,992.8300170898438000,56.5958900451660160,676.8348999023438000,4.0721487998962400,52.8742599487304700,52,95,86,79,78,15249,2147754633,2147422436,2148015158,2147876397,2147643968,2147050514,2148266304,2147199232,87,4,13,29090
1381950375,5809,997.6900024414062000,57.0255203247070300,676.0822143554688000,4.0970711708068850,52.8092308044433600,52,95,83,78,78,15249,2147751817,2147422180,2148010477,2147875510,2147641563,2147055826,2148268973,2147196617,3505,3,13,65238
1381953356,5806,1002.4799804687500000,57.2332191467285160,675.5618286132812000,4.1142959594726560,52.7770195007324200,52,98,85,78,78,15269,2147753965,2147425280,2148013339,2147875035,2147639670,2147053686,2148267392,2147200082,312,4,13,54638
